| time (UTC) | temp F | wind direction | speed MPH | gust MPH | rain 1hr in | rain 24hr in | rain mn in | humidity % | barometer mb |
| 20260904164320 | 93 | 27 | 4.0 | 7.0 | 0.00 | 0.00 | 0.00 | 58 | 1015.0 |
| 20260904163820 | 93 | 333 | 2.0 | 9.0 | 0.00 | 0.00 | 0.00 | 61 | 1015.0 |
| 20260904163350 | 93 | 310 | 2.0 | 9.0 | 0.00 | 0.00 | 0.00 | 60 | 1015.0 |
| 20260904162849 | 93 | 280 | 3.0 | 10.0 | 0.00 | 0.00 | 0.00 | 60 | 1015.0 |
| 20260904162349 | 92 | 17 | 3.0 | 10.0 | 0.00 | 0.00 | 0.00 | 61 | 1015.0 |
| 20260904161849 | 92 | 291 | 5.0 | 9.0 | 0.00 | 0.00 | 0.00 | 62 | 1015.1 |
| 20260904160849 | 92 | 176 | 2.0 | 9.0 | 0.00 | 0.00 | 0.00 | 62 | 1015.1 |
| 20260904155849 | 91 | 316 | 3.0 | 9.0 | 0.00 | 0.00 | 0.00 | 64 | 1015.2 |
| 20260904155348 | 91 | 327 | 1.0 | 9.0 | 0.00 | 0.00 | 0.00 | 63 | 1015.3 |
| 20260904154848 | 91 | 17 | 4.0 | 9.0 | 0.00 | 0.00 | 0.00 | 64 | 1015.2 |
| 20260904152848 | 90 | 42 | 2.0 | 6.0 | 0.00 | 0.00 | 0.00 | 66 | 1015.2 |
| 20260904152347 | 90 | 340 | 4.0 | 9.0 | 0.00 | 0.00 | 0.00 | 70 | 1015.2 |
| 20260904151347 | 89 | 26 | 3.0 | 5.0 | 0.00 | 0.00 | 0.00 | 69 | 1015.1 |
| 20260904145846 | 89 | 321 | 0.0 | 6.0 | 0.00 | 0.00 | 0.00 | 68 | 1014.9 |
| 20260904144847 | 89 | 269 | 3.0 | 5.0 | 0.00 | 0.00 | 0.00 | 70 | 1014.9 |
| 20260904144346 | 88 | 300 | 4.0 | 6.0 | 0.00 | 0.00 | 0.00 | 72 | 1014.9 |
| 20260904143846 | 88 | 279 | 0.0 | 6.0 | 0.00 | 0.00 | 0.00 | 71 | 1014.9 |
| 20260904142345 | 86 | 187 | 1.0 | 4.0 | 0.00 | 0.00 | 0.00 | 77 | 1014.6 |
| 20260904141846 | 85 | 253 | 0.0 | 4.0 | 0.00 | 0.00 | 0.00 | 76 | 1014.6 |
| 20260904141345 | 85 | 22 | 0.0 | 4.0 | 0.00 | 0.00 | 0.00 | 79 | 1014.5 |
| 20260904140845 | 84 | 233 | 0.0 | 5.0 | 0.00 | 0.00 | 0.00 | 77 | 1014.6 |
| 20260904140345 | 84 | 259 | 4.0 | 5.0 | 0.00 | 0.00 | 0.00 | 78 | 1014.7 |
| 20260904135845 | 83 | 211 | 1.0 | 4.0 | 0.00 | 0.00 | 0.00 | 80 | 1014.7 |
| 20260904135344 | 82 | 91 | 2.0 | 4.0 | 0.00 | 0.00 | 0.00 | 80 | 1014.5 |
| 20260904134845 | 82 | 246 | 0.0 | 4.0 | 0.00 | 0.00 | 0.00 | 81 | 1014.6 |
| 20260904134345 | 81 | 275 | 1.0 | 4.0 | 0.00 | 0.00 | 0.00 | 81 | 1014.6 |
| 20260904133344 | 81 | 254 | 2.0 | 2.0 | 0.00 | 0.00 | 0.00 | 82 | 1014.6 |
| 20260904132844 | 80 | 192 | 0.0 | 3.0 | 0.00 | 0.00 | 0.00 | 84 | 1014.3 |
| 20260904132344 | 80 | 192 | 0.0 | 3.0 | 0.00 | 0.00 | 0.00 | 84 | 1014.4 |
| 20260904131844 | 79 | 5 | 2.0 | 4.0 | 0.00 | 0.00 | 0.00 | 86 | 1014.4 |
| 20260904131343 | 79 | 161 | 1.0 | 4.0 | 0.00 | 0.00 | 0.00 | 87 | 1014.3 |
| 20260904130843 | 78 | 239 | 0.0 | 4.0 | 0.00 | 0.00 | 0.00 | 89 | 1014.2 |
| 20260904130343 | 77 | 185 | 3.0 | 4.0 | 0.00 | 0.00 | 0.00 | 92 | 1014.2 |
| 20260904125843 | 76 | 158 | 1.0 | 4.0 | 0.00 | 0.00 | 0.00 | 94 | 1014.3 |
| 20260904125343 | 75 | 195 | 2.0 | 4.0 | 0.00 | 0.00 | 0.00 | 96 | 1014.4 |
| 20260904124343 | 74 | 242 | 0.0 | 0.0 | 0.00 | 0.00 | 0.00 | 96 | 1014.5 |
| 20260904123843 | 74 | 242 | 0.0 | 0.0 | 0.00 | 0.00 | 0.00 | 96 | 1014.6 |
| 20260904123342 | 73 | 242 | 0.0 | 0.0 | 0.00 | 0.00 | 0.00 | 96 | 1014.4 |
| 20260904122342 | 73 | 242 | 0.0 | 0.0 | 0.00 | 0.00 | 0.00 | 96 | 1014.6 |
| 20260904121342 | 72 | 242 | 0.0 | 0.0 | 0.00 | 0.00 | 0.00 | 96 | 1014.6 |
| 20260904120842 | 72 | 242 | 0.0 | 0.0 | 0.00 | 0.00 | 0.00 | 96 | 1014.5 |
| 20260904120341 | 72 | 242 | 0.0 | 0.0 | 0.00 | 0.00 | 0.00 | 96 | 1014.4 |
| 20260904115841 | 72 | 242 | 0.0 | 0.0 | 0.00 | 0.00 | 0.00 | 96 | 1014.3 |
| 20260904115341 | 71 | 242 | 0.0 | 0.0 | 0.00 | 0.00 | 0.00 | 96 | 1014.1 |
| 20260904114841 | 71 | 242 | 0.0 | 0.0 | 0.00 | 0.00 | 0.00 | 96 | 1014.1 |
| 20260904114341 | 71 | 242 | 0.0 | 0.0 | 0.00 | 0.00 | 0.00 | 95 | 1014.1 |
| 20260904113840 | 71 | 242 | 0.0 | 0.0 | 0.00 | 0.00 | 0.00 | 95 | 1013.9 |
| 20260904112840 | 70 | 242 | 0.0 | 0.0 | 0.00 | 0.00 | 0.00 | 95 | 1013.7 |
| 20260904112340 | 70 | 242 | 0.0 | 0.0 | 0.00 | 0.00 | 0.00 | 95 | 1013.5 |
| 20260904111840 | 70 | 242 | 0.0 | 0.0 | 0.00 | 0.00 | 0.00 | 95 | 1013.6 |
| 20260904111339 | 70 | 242 | 0.0 | 0.0 | 0.00 | 0.00 | 0.00 | 95 | 1013.6 |
| 20260904110840 | 70 | 242 | 0.0 | 0.0 | 0.00 | 0.00 | 0.00 | 95 | 1013.5 |
| 20260904110340 | 70 | 242 | 0.0 | 0.0 | 0.00 | 0.00 | 0.00 | 95 | 1013.4 |
| 20260904105839 | 70 | 242 | 0.0 | 0.0 | 0.00 | 0.00 | 0.00 | 95 | 1013.7 |
| 20260904105339 | 70 | 242 | 0.0 | 0.0 | 0.00 | 0.00 | 0.00 | 95 | 1013.8 |
| 20260904104839 | 70 | 242 | 0.0 | 0.0 | 0.00 | 0.00 | 0.00 | 95 | 1013.7 |
| 20260904104339 | 70 | 242 | 0.0 | 0.0 | 0.00 | 0.00 | 0.00 | 95 | 1013.6 |
| 20260904103839 | 70 | 242 | 0.0 | 0.0 | 0.00 | 0.00 | 0.00 | 95 | 1013.5 |
| 20260904103339 | 70 | 242 | 0.0 | 0.0 | 0.00 | 0.00 | 0.00 | 95 | 1013.4 |
| 20260904102838 | 70 | 242 | 0.0 | 0.0 | 0.00 | 0.00 | 0.00 | 95 | 1013.4 |
| 20260904102338 | 70 | 242 | 0.0 | 0.0 | 0.00 | 0.00 | 0.00 | 95 | 1013.3 |
| 20260904101838 | 70 | 242 | 0.0 | 0.0 | 0.00 | 0.00 | 0.00 | 95 | 1013.3 |
| 20260904101338 | 70 | 242 | 0.0 | 0.0 | 0.00 | 0.00 | 0.00 | 95 | 1013.2 |
| 20260904100838 | 70 | 242 | 0.0 | 0.0 | 0.00 | 0.00 | 0.00 | 95 | 1013.2 |
| 20260904095837 | 70 | 242 | 0.0 | 0.0 | 0.00 | 0.00 | 0.00 | 95 | 1013.4 |
| 20260904095337 | 70 | 242 | 0.0 | 0.0 | 0.00 | 0.00 | 0.00 | 95 | 1013.3 |
| 20260904094837 | 70 | 242 | 0.0 | 0.0 | 0.00 | 0.00 | 0.00 | 95 | 1013.3 |
| 20260904094337 | 70 | 242 | 0.0 | 0.0 | 0.00 | 0.00 | 0.00 | 95 | 1013.3 |
| 20260904093837 | 70 | 242 | 0.0 | 0.0 | 0.00 | 0.00 | 0.00 | 94 | 1013.3 |
| 20260904093337 | 70 | 242 | 0.0 | 0.0 | 0.00 | 0.00 | 0.00 | 95 | 1013.4 |
| 20260904092837 | 70 | 242 | 0.0 | 0.0 | 0.00 | 0.00 | 0.00 | 94 | 1013.4 |
| 20260904092336 | 70 | 242 | 0.0 | 0.0 | 0.00 | 0.00 | 0.00 | 95 | 1013.2 |
| 20260904091836 | 70 | 242 | 0.0 | 0.0 | 0.00 | 0.00 | 0.00 | 95 | 1013.3 |
| 20260904091336 | 70 | 242 | 0.0 | 0.0 | 0.00 | 0.00 | 0.00 | 95 | 1013.2 |
| 20260904090836 | 70 | 242 | 0.0 | 0.0 | 0.00 | 0.00 | 0.00 | 94 | 1013.1 |
| 20260904090335 | 70 | 242 | 0.0 | 0.0 | 0.00 | 0.00 | 0.00 | 95 | 1013.1 |
| 20260904085835 | 70 | 242 | 0.0 | 0.0 | 0.00 | 0.00 | 0.00 | 95 | 1013.1 |
| 20260904085335 | 70 | 242 | 0.0 | 0.0 | 0.00 | 0.00 | 0.00 | 95 | 1013.2 |
| 20260904084835 | 70 | 242 | 0.0 | 0.0 | 0.00 | 0.00 | 0.00 | 94 | 1013.2 |
| 20260904084335 | 70 | 242 | 0.0 | 0.0 | 0.00 | 0.00 | 0.00 | 94 | 1013.2 |
| 20260904083835 | 70 | 242 | 0.0 | 0.0 | 0.00 | 0.00 | 0.00 | 94 | 1013.3 |
| 20260904083335 | 71 | 242 | 0.0 | 0.0 | 0.00 | 0.00 | 0.00 | 94 | 1013.5 |
| 20260904082835 | 71 | 242 | 0.0 | 0.0 | 0.00 | 0.00 | 0.00 | 94 | 1013.4 |
| 20260904082335 | 71 | 242 | 0.0 | 0.0 | 0.00 | 0.00 | 0.00 | 94 | 1013.5 |
| 20260904081834 | 71 | 242 | 0.0 | 0.0 | 0.00 | 0.00 | 0.00 | 94 | 1013.5 |
| 20260904081334 | 71 | 242 | 0.0 | 0.0 | 0.00 | 0.00 | 0.00 | 94 | 1013.6 |
| 20260904080834 | 71 | 242 | 0.0 | 0.0 | 0.00 | 0.00 | 0.00 | 94 | 1013.6 |
| 20260904080334 | 71 | 242 | 0.0 | 0.0 | 0.00 | 0.00 | 0.00 | 94 | 1013.6 |
| 20260904075834 | 71 | 242 | 0.0 | 0.0 | 0.00 | 0.00 | 0.00 | 94 | 1013.7 |
| 20260904075334 | 71 | 242 | 0.0 | 0.0 | 0.00 | 0.00 | 0.00 | 94 | 1013.7 |
| 20260904074833 | 71 | 242 | 0.0 | 0.0 | 0.00 | 0.00 | 0.00 | 94 | 1013.8 |
| 20260904074333 | 71 | 242 | 0.0 | 0.0 | 0.00 | 0.00 | 0.00 | 94 | 1013.7 |
| 20260904073833 | 71 | 242 | 0.0 | 0.0 | 0.00 | 0.00 | 0.00 | 94 | 1013.8 |
| 20260904073333 | 71 | 242 | 0.0 | 0.0 | 0.00 | 0.00 | 0.00 | 94 | 1013.8 |
| 20260904072332 | 71 | 242 | 0.0 | 0.0 | 0.00 | 0.00 | 0.00 | 94 | 1013.9 |
| 20260904071832 | 71 | 242 | 0.0 | 0.0 | 0.00 | 0.00 | 0.00 | 94 | 1014.0 |
| 20260904070832 | 71 | 242 | 0.0 | 0.0 | 0.00 | 0.00 | 0.00 | 93 | 1014.0 |
| 20260904070332 | 71 | 242 | 0.0 | 1.0 | 0.00 | 0.00 | 0.00 | 93 | 1014.1 |
| 20260904065832 | 71 | 242 | 0.0 | 1.0 | 0.00 | 0.00 | 0.00 | 93 | 1014.0 |
| 20260904065332 | 71 | 242 | 0.0 | 0.0 | 0.00 | 0.00 | 0.00 | 93 | 1014.1 |
| 20260904064331 | 71 | 242 | 0.0 | 0.0 | 0.00 | 0.00 | 0.00 | 93 | 1014.1 |
| 20260904063831 | 71 | 242 | 0.0 | 0.0 | 0.00 | 0.00 | 0.00 | 93 | 1014.1 |
| 20260904063331 | 71 | 242 | 0.0 | 0.0 | 0.00 | 0.00 | 0.00 | 93 | 1014.1 |
| 20260904062831 | 71 | 242 | 0.0 | 0.0 | 0.00 | 0.00 | 0.00 | 94 | 1014.0 |
| 20260904061831 | 71 | 242 | 0.0 | 0.0 | 0.00 | 0.00 | 0.00 | 93 | 1014.2 |
| 20260904061330 | 71 | 242 | 0.0 | 0.0 | 0.00 | 0.00 | 0.00 | 93 | 1014.4 |
| 20260904060330 | 71 | 242 | 0.0 | 0.0 | 0.00 | 0.00 | 0.00 | 93 | 1014.5 |
| 20260904055830 | 71 | 242 | 0.0 | 0.0 | 0.00 | 0.00 | 0.00 | 93 | 1014.5 |
| 20260904055330 | 71 | 242 | 0.0 | 0.0 | 0.00 | 0.00 | 0.00 | 93 | 1014.5 |
| 20260904054329 | 71 | 242 | 0.0 | 0.0 | 0.00 | 0.00 | 0.00 | 93 | 1014.5 |
| 20260904053830 | 71 | 242 | 0.0 | 0.0 | 0.00 | 0.00 | 0.00 | 93 | 1014.5 |
| 20260904053329 | 71 | 242 | 0.0 | 0.0 | 0.00 | 0.00 | 0.00 | 93 | 1014.6 |
| 20260904052829 | 71 | 242 | 0.0 | 0.0 | 0.00 | 0.00 | 0.00 | 92 | 1014.5 |
| 20260904052329 | 71 | 242 | 0.0 | 0.0 | 0.00 | 0.00 | 0.00 | 92 | 1014.4 |
| 20260904051829 | 71 | 242 | 0.0 | 0.0 | 0.00 | 0.00 | 0.00 | 92 | 1014.4 |
| 20260904051329 | 72 | 242 | 0.0 | 0.0 | 0.00 | 0.00 | 0.00 | 93 | 1014.4 |
| 20260904050829 | 72 | 242 | 0.0 | 0.0 | 0.00 | 0.00 | 0.00 | 93 | 1014.5 |
| 20260904045828 | 72 | 242 | 0.0 | 0.0 | 0.00 | 0.00 | 0.00 | 92 | 1014.5 |
| 20260904045328 | 72 | 242 | 0.0 | 0.0 | 0.00 | 0.00 | 0.00 | 92 | 1014.6 |
| 20260904044828 | 72 | 242 | 0.0 | 0.0 | 0.00 | 0.00 | 0.00 | 92 | 1014.5 |
| 20260904044328 | 72 | 242 | 0.0 | 0.0 | 0.00 | 0.00 | 0.00 | 91 | 1014.5 |
| 20260904043828 | 72 | 242 | 0.0 | 0.0 | 0.00 | 0.00 | 0.00 | 91 | 1014.4 |
| 20260904043327 | 73 | 242 | 0.0 | 0.0 | 0.00 | 0.00 | 0.00 | 91 | 1014.4 |
| 20260904042827 | 73 | 242 | 0.0 | 0.0 | 0.00 | 0.00 | 0.00 | 91 | 1014.3 |
| 20260904041827 | 73 | 242 | 0.0 | 0.0 | 0.00 | 0.00 | 0.00 | 90 | 1014.2 |
| 20260904041327 | 73 | 242 | 0.0 | 1.0 | 0.00 | 0.00 | 0.00 | 89 | 1014.1 |
| 20260904040827 | 74 | 242 | 0.0 | 3.0 | 0.00 | 0.00 | 0.00 | 89 | 1014.2 |
| 20260904035826 | 74 | 216 | 1.0 | 3.0 | 0.00 | 0.00 | 0.00 | 89 | 1013.9 |
| 20260904034826 | 74 | 344 | 0.0 | 2.0 | 0.00 | 0.00 | 0.00 | 90 | 1014.0 |
| 20260904034326 | 74 | 344 | 1.0 | 1.0 | 0.00 | 0.00 | 0.00 | 89 | 1014.1 |
| 20260904033826 | 74 | 344 | 0.0 | 0.0 | 0.00 | 0.00 | 0.00 | 89 | 1014.1 |
| 20260904033326 | 74 | 344 | 0.0 | 1.0 | 0.00 | 0.00 | 0.00 | 89 | 1014.2 |
| 20260904032826 | 74 | 344 | 0.0 | 1.0 | 0.00 | 0.00 | 0.00 | 89 | 1014.1 |
| 20260904031325 | 74 | 344 | 0.0 | 0.0 | 0.00 | 0.00 | 0.00 | 88 | 1014.5 |
| 20260904030825 | 74 | 344 | 0.0 | 2.0 | 0.00 | 0.00 | 0.00 | 88 | 1014.5 |
| 20260904030325 | 74 | 344 | 0.0 | 2.0 | 0.00 | 0.00 | 0.00 | 89 | 1014.6 |
| 20260904025824 | 74 | 344 | 1.0 | 2.0 | 0.00 | 0.00 | 0.00 | 89 | 1014.3 |
| 20260904025324 | 74 | 344 | 1.0 | 2.0 | 0.00 | 0.00 | 0.00 | 89 | 1014.5 |
| 20260904024824 | 74 | 76 | 1.0 | 2.0 | 0.00 | 0.00 | 0.00 | 88 | 1014.4 |
| 20260904024324 | 74 | 76 | 0.0 | 2.0 | 0.00 | 0.00 | 0.00 | 89 | 1014.5 |
| 20260904023824 | 74 | 76 | 0.0 | 2.0 | 0.00 | 0.00 | 0.00 | 88 | 1014.6 |
| 20260904023324 | 75 | 76 | 2.0 | 2.0 | 0.00 | 0.00 | 0.00 | 87 | 1014.5 |
| 20260904022823 | 75 | 76 | 0.0 | 0.0 | 0.00 | 0.00 | 0.00 | 87 | 1014.5 |
| 20260904022323 | 75 | 76 | 0.0 | 0.0 | 0.00 | 0.00 | 0.00 | 87 | 1014.6 |
| 20260904021823 | 75 | 76 | 0.0 | 0.0 | 0.00 | 0.00 | 0.00 | 87 | 1014.6 |
| 20260904021323 | 75 | 76 | 0.0 | 0.0 | 0.00 | 0.00 | 0.00 | 87 | 1014.6 |
| 20260904020823 | 75 | 76 | 0.0 | 1.0 | 0.00 | 0.00 | 0.00 | 87 | 1014.6 |
| 20260904020323 | 75 | 76 | 0.0 | 1.0 | 0.00 | 0.00 | 0.00 | 87 | 1014.6 |
| 20260904015322 | 75 | 76 | 0.0 | 3.0 | 0.00 | 0.00 | 0.00 | 86 | 1014.6 |
| 20260904014822 | 75 | 76 | 0.0 | 3.0 | 0.00 | 0.00 | 0.00 | 86 | 1014.6 |
| 20260904014322 | 75 | 76 | 2.0 | 2.0 | 0.00 | 0.00 | 0.00 | 87 | 1014.6 |
| 20260904013822 | 76 | 76 | 0.0 | 4.0 | 0.00 | 0.00 | 0.00 | 86 | 1014.5 |
| 20260904013322 | 76 | 76 | 0.0 | 5.0 | 0.00 | 0.00 | 0.00 | 85 | 1014.4 |
| 20260904012822 | 76 | 83 | 0.0 | 5.0 | 0.00 | 0.00 | 0.00 | 84 | 1014.4 |
| 20260904012321 | 77 | 51 | 2.0 | 3.0 | 0.00 | 0.00 | 0.00 | 83 | 1014.3 |
| 20260904011821 | 77 | 72 | 2.0 | 2.0 | 0.00 | 0.00 | 0.00 | 83 | 1014.4 |
| 20260904011351 | 77 | 82 | 0.0 | 4.0 | 0.00 | 0.00 | 0.00 | 82 | 1014.2 |
| 20260904010851 | 78 | 82 | 0.0 | 4.0 | 0.00 | 0.00 | 0.00 | 82 | 1014.3 |
| 20260904010351 | 79 | 72 | 0.0 | 4.0 | 0.00 | 0.00 | 0.00 | 80 | 1014.3 |
| 20260904005851 | 80 | 78 | 1.0 | 6.0 | 0.00 | 0.00 | 0.00 | 76 | 1014.2 |
| 20260904005350 | 81 | 310 | 2.0 | 10.0 | 0.00 | 0.00 | 0.00 | 74 | 1014.2 |
| 20260904004850 | 82 | 45 | 2.0 | 13.0 | 0.00 | 0.00 | 0.00 | 73 | 1014.4 |
| 20260904004350 | 83 | 331 | 4.0 | 13.0 | 0.00 | 0.00 | 0.00 | 73 | 1014.3 |
| 20260904003850 | 83 | 346 | 3.0 | 10.0 | 0.00 | 0.00 | 0.00 | 75 | 1014.0 |
| 20260904002850 | 82 | 360 | 6.0 | 6.0 | 0.00 | 0.00 | 0.00 | 80 | 1013.5 |
| 20260904002350 | 82 | 199 | 1.0 | 3.0 | 0.00 | 0.00 | 0.00 | 81 | 1013.2 |
| 20260904001850 | 81 | 198 | 1.0 | 3.0 | 0.00 | 0.00 | 0.00 | 83 | 1013.2 |
| 20260904001349 | 81 | 198 | 1.0 | 3.0 | 0.00 | 0.00 | 0.00 | 84 | 1013.3 |
| 20260904000349 | 81 | 215 | 0.0 | 0.0 | 0.00 | 0.00 | 0.00 | 85 | 1013.4 |
| 20260903235849 | 82 | 215 | 0.0 | 0.0 | 0.00 | 0.00 | 0.00 | 84 | 1013.3 |
| 20260903235349 | 82 | 215 | 0.0 | 0.0 | 0.00 | 0.00 | 0.00 | 83 | 1013.4 |
| 20260903234848 | 83 | 215 | 0.0 | 0.0 | 0.00 | 0.00 | 0.00 | 83 | 1013.5 |
| 20260903234349 | 83 | 215 | 0.0 | 0.0 | 0.00 | 0.00 | 0.00 | 82 | 1013.5 |
| 20260903233849 | 83 | 215 | 0.0 | 0.0 | 0.00 | 0.00 | 0.00 | 82 | 1013.4 |
| 20260903233348 | 84 | 215 | 0.0 | 0.0 | 0.00 | 0.00 | 0.00 | 81 | 1013.4 |
| 20260903232848 | 85 | 215 | 0.0 | 0.0 | 0.00 | 0.00 | 0.00 | 80 | 1013.4 |
| 20260903232348 | 86 | 215 | 0.0 | 2.0 | 0.00 | 0.00 | 0.00 | 76 | 1013.5 |
| 20260903231848 | 88 | 215 | 0.0 | 3.0 | 0.00 | 0.00 | 0.00 | 71 | 1013.3 |
| 20260903231347 | 89 | 213 | 1.0 | 4.0 | 0.00 | 0.00 | 0.00 | 67 | 1013.2 |
| 20260903230848 | 89 | 206 | 3.0 | 4.0 | 0.00 | 0.00 | 0.00 | 66 | 1013.1 |
| 20260903230347 | 89 | 223 | 2.0 | 5.0 | 0.00 | 0.00 | 0.00 | 67 | 1013.1 |
| 20260903225847 | 90 | 227 | 2.0 | 6.0 | 0.00 | 0.00 | 0.00 | 66 | 1013.2 |
| 20260903225347 | 90 | 194 | 2.0 | 6.0 | 0.00 | 0.00 | 0.00 | 65 | 1013.3 |
| 20260903224347 | 90 | 210 | 0.0 | 5.0 | 0.00 | 0.00 | 0.00 | 64 | 1013.3 |
| 20260903223846 | 91 | 223 | 3.0 | 5.0 | 0.00 | 0.00 | 0.00 | 62 | 1013.4 |
| 20260903223346 | 91 | 217 | 1.0 | 5.0 | 0.00 | 0.00 | 0.00 | 61 | 1013.4 |
| 20260903222346 | 91 | 182 | 2.0 | 7.0 | 0.00 | 0.00 | 0.00 | 61 | 1013.4 |
| 20260903221846 | 91 | 243 | 2.0 | 6.0 | 0.00 | 0.00 | 0.00 | 61 | 1013.4 |
| 20260903221346 | 91 | 187 | 1.0 | 6.0 | 0.00 | 0.00 | 0.00 | 61 | 1013.3 |
| 20260903220845 | 91 | 150 | 1.0 | 6.0 | 0.00 | 0.00 | 0.00 | 61 | 1013.3 |
| 20260903220346 | 92 | 183 | 2.0 | 5.0 | 0.00 | 0.00 | 0.00 | 61 | 1013.2 |
| 20260903215845 | 92 | 237 | 2.0 | 6.0 | 0.00 | 0.00 | 0.00 | 62 | 1013.1 |
| 20260903215345 | 92 | 188 | 2.0 | 6.0 | 0.00 | 0.00 | 0.00 | 61 | 1013.1 |
| 20260903214345 | 92 | 178 | 3.0 | 7.0 | 0.00 | 0.00 | 0.00 | 58 | 1013.0 |
| 20260903213845 | 93 | 246 | 3.0 | 7.0 | 0.00 | 0.00 | 0.00 | 60 | 1013.0 |
| 20260903213344 | 93 | 184 | 4.0 | 7.0 | 0.00 | 0.00 | 0.00 | 61 | 1012.8 |
| 20260903212844 | 93 | 193 | 3.0 | 7.0 | 0.00 | 0.00 | 0.00 | 58 | 1012.8 |
| 20260903211844 | 93 | 192 | 3.0 | 13.0 | 0.00 | 0.00 | 0.00 | 58 | 1012.5 |
| 20260903211344 | 93 | 200 | 2.0 | 9.0 | 0.00 | 0.00 | 0.00 | 61 | 1012.5 |
| 20260903210844 | 93 | 161 | 3.0 | 9.0 | 0.00 | 0.00 | 0.00 | 57 | 1012.6 |
| 20260903210344 | 93 | 213 | 5.0 | 9.0 | 0.00 | 0.00 | 0.00 | 57 | 1012.5 |
| 20260903205843 | 93 | 195 | 3.0 | 12.0 | 0.00 | 0.00 | 0.00 | 57 | 1012.5 |
| 20260903204843 | 93 | 187 | 5.0 | 15.0 | 0.00 | 0.00 | 0.00 | 55 | 1012.6 |
| 20260903204343 | 93 | 230 | 6.0 | 15.0 | 0.00 | 0.00 | 0.00 | 56 | 1012.7 |
| 20260903203843 | 93 | 200 | 6.0 | 12.0 | 0.00 | 0.00 | 0.00 | 58 | 1012.6 |
| 20260903202843 | 93 | 254 | 4.0 | 12.0 | 0.00 | 0.00 | 0.00 | 56 | 1012.7 |
| 20260903202342 | 93 | 246 | 5.0 | 12.0 | 0.00 | 0.00 | 0.00 | 56 | 1012.9 |
| 20260903201842 | 93 | 160 | 6.0 | 14.0 | 0.00 | 0.00 | 0.00 | 56 | 1013.0 |
| 20260903200842 | 94 | 232 | 13.0 | 13.0 | 0.00 | 0.00 | 0.00 | 56 | 1013.1 |
| 20260903200342 | 94 | 256 | 4.0 | 7.0 | 0.00 | 0.00 | 0.00 | 59 | 1013.2 |
| 20260903195841 | 93 | 198 | 1.0 | 9.0 | 0.00 | 0.00 | 0.00 | 58 | 1013.2 |
| 20260903195341 | 92 | 253 | 5.0 | 11.0 | 0.00 | 0.00 | 0.00 | 58 | 1013.4 |
| 20260903194341 | 93 | 205 | 7.0 | 9.0 | 0.00 | 0.00 | 0.00 | 56 | 1013.7 |
| 20260903193841 | 92 | 214 | 1.0 | 12.0 | 0.00 | 0.00 | 0.00 | 58 | 1013.8 |
| 20260903193341 | 92 | 166 | 2.0 | 12.0 | 0.00 | 0.00 | 0.00 | 56 | 1013.8 |
| 20260903192840 | 94 | 266 | 6.0 | 11.0 | 0.00 | 0.00 | 0.00 | 56 | 1014.0 |
| 20260903192340 | 94 | 191 | 4.0 | 10.0 | 0.00 | 0.00 | 0.00 | 58 | 1014.1 |
| 20260903191840 | 93 | 187 | 7.0 | 11.0 | 0.00 | 0.00 | 0.00 | 55 | 1014.2 |
| 20260903190840 | 93 | 182 | 3.0 | 13.0 | 0.00 | 0.00 | 0.00 | 59 | 1014.3 |
| 20260903185840 | 93 | 202 | 9.0 | 11.0 | 0.00 | 0.00 | 0.00 | 56 | 1014.4 |
| 20260903185339 | 93 | 192 | 5.0 | 12.0 | 0.00 | 0.00 | 0.00 | 57 | 1014.4 |
| 20260903184840 | 93 | 210 | 6.0 | 12.0 | 0.00 | 0.00 | 0.00 | 56 | 1014.4 |
| 20260903184339 | 93 | 219 | 3.0 | 10.0 | 0.00 | 0.00 | 0.00 | 58 | 1014.4 |
| 20260903183839 | 93 | 183 | 4.0 | 10.0 | 0.00 | 0.00 | 0.00 | 55 | 1014.5 |
| 20260903183339 | 93 | 211 | 6.0 | 10.0 | 0.00 | 0.00 | 0.00 | 58 | 1014.5 |
| 20260903182839 | 93 | 204 | 4.0 | 10.0 | 0.00 | 0.00 | 0.00 | 56 | 1014.6 |
| 20260903182338 | 93 | 165 | 2.0 | 9.0 | 0.00 | 0.00 | 0.00 | 58 | 1014.5 |
| 20260903181839 | 92 | 180 | 5.0 | 10.0 | 0.00 | 0.00 | 0.00 | 59 | 1014.5 |
| 20260903181338 | 93 | 213 | 6.0 | 10.0 | 0.00 | 0.00 | 0.00 | 57 | 1014.5 |
| 20260903180838 | 93 | 234 | 1.0 | 9.0 | 0.00 | 0.00 | 0.00 | 58 | 1014.5 |
| 20260903180338 | 93 | 221 | 5.0 | 9.0 | 0.00 | 0.00 | 0.00 | 58 | 1014.6 |
| 20260903175838 | 93 | 178 | 4.0 | 10.0 | 0.00 | 0.00 | 0.00 | 59 | 1014.5 |
| 20260903174838 | 92 | 165 | 3.0 | 10.0 | 0.00 | 0.00 | 0.00 | 60 | 1014.8 |
| 20260903174337 | 92 | 186 | 2.0 | 10.0 | 0.00 | 0.00 | 0.00 | 59 | 1014.8 |
| 20260903173837 | 92 | 165 | 4.0 | 10.0 | 0.00 | 0.00 | 0.00 | 60 | 1014.9 |
| 20260903172837 | 92 | 216 | 3.0 | 12.0 | 0.00 | 0.00 | 0.00 | 62 | 1015.1 |
| 20260903172338 | 92 | 196 | 6.0 | 11.0 | 0.00 | 0.00 | 0.00 | 59 | 1015.0 |
| 20260903171837 | 93 | 187 | 3.0 | 7.0 | 0.00 | 0.00 | 0.00 | 60 | 1014.9 |
| 20260903170837 | 93 | 184 | 0.0 | 5.0 | 0.00 | 0.00 | 0.00 | 59 | 1015.1 |
| 20260903170336 | 93 | 247 | 2.0 | 5.0 | 0.00 | 0.00 | 0.00 | 60 | 1015.0 |
| 20260903165836 | 92 | 186 | 1.0 | 5.0 | 0.00 | 0.00 | 0.00 | 61 | 1015.1 |
| 20260903165336 | 92 | 259 | 2.0 | 7.0 | 0.00 | 0.00 | 0.00 | 61 | 1015.0 |